Warrenton, OR

11:10 PM PST on February 09, 2016 (GMT -0800)
Astoria Regional

Weather History for KAST - February, 2013

Change the Weather History Date:

Friday, February 22, 2013

  Actual Average Record
Temperature  
Mean Temperature 45 °F 45 °F  
Max Temperature 50 °F 52 °F 67 °F (1908)
Min Temperature 39 °F 37 °F 29 °F (1988)
Degree Days  
Heating Degree Days 20 20  
Month to date heating degree days 448 460  
Since 1 July heating degree days 3258 3225  
Cooling Degree Days 0 0  
Month to date cooling degree days 0 0  
Year to date cooling degree days 0 0  
Moisture  
Dew Point 42 °F    
Average Humidity 81    
Maximum Humidity 96    
Minimum Humidity 65    
Precipitation  
Precipitation 1.39 in 0.25 in 1.97 in (1933)
Month to date precipitation 4.02 5.68  
Year to date precipitation 13.12 15.88  
Snow  
Snow 0.00 in - - ()
Month to date snowfall 0.0  
Snow Depth 0.00 in    
Sea Level Pressure  
Sea Level Pressure 29.92 in    
Wind  
Wind Speed 18 mph (SW)    
Max Wind Speed 31 mph    
Max Gust Speed 46 mph    
Visibility 5 miles    
Events Rain    
T = Trace of Precipitation, MM = Missing Value Source: NWS Daily Summary

Daily Weather History Graph

Daily Weather History Graph

Search for Another Location

Airport or City:

Trip Planner

Search our weather history database for the weather conditions in past years. The results will help you decide how hot, cold, wet, or windy it might be!

Date:

Astronomy

Feb. 22, 2013 Rise Set
Actual Time 7:06 AM PST 5:52 PM PST
Civil Twilight 6:35 AM PST 6:22 PM PST
Nautical Twilight 6:01 AM PST 6:57 PM PST
Astronomical Twilight 5:26 AM PST 7:32 PM PST
Moon 3:03 PM PST (2/22) 5:02 AM PST (2/22)
Length of Visible Light 11h 46m
Length of Day
10h 46m
Waxing Gibbous, 91% of the Moon is Illuminated
Feb 22
Waxing Gibbous
Feb 25
Full
Mar 4
Last Quarter
Mar 11
New
Mar 19
First Quarter

Hourly Weather History & Observations

Time (PST) Temp. Windchill Dew Point Humidity Pressure Visibility Wind Dir Wind Speed Gust Speed Precip Events Conditions
12:55 AM 46.0 °F 41.0 °F 42.1 °F 86% 30.12 in 7.0 mi SSW 10.4 mph 16.1 mph 0.00 in Rain Light Rain
1:55 AM 46.0 °F 40.2 °F 42.1 °F 86% 30.10 in 7.0 mi SSW 12.7 mph 18.4 mph 0.00 in Rain Light Rain
2:55 AM 46.0 °F 39.9 °F 42.1 °F 86% 30.07 in 8.0 mi SSW 13.8 mph 24.2 mph 0.01 in   Overcast
3:55 AM 46.9 °F - 42.1 °F 83% 30.05 in 8.0 mi SSW 15.0 mph 27.6 mph N/A   Overcast
4:55 AM 46.9 °F - 41.0 °F 80% 30.01 in 9.0 mi SSW 16.1 mph 26.5 mph 0.00 in Rain Light Rain
5:10 AM 46.4 °F 39.0 °F 41.0 °F 81% 30.01 in 7.0 mi SSW 19.6 mph 31.1 mph 0.00 in Rain Light Rain
5:55 AM 46.0 °F 37.8 °F 43.0 °F 89% 29.98 in 7.0 mi SSW 23.0 mph 33.4 mph 0.03 in Rain Light Rain
6:55 AM 46.0 °F 38.5 °F 43.0 °F 89% 29.94 in 10.0 mi SSW 19.6 mph 32.2 mph 0.02 in Rain Light Rain
7:55 AM 46.9 °F - 44.1 °F 90% 29.95 in 4.0 mi SSW 21.9 mph 33.4 mph 0.12 in Rain Rain
8:04 AM 46.4 °F 39.5 °F 44.6 °F 93% 29.95 in 4.0 mi SSW 17.3 mph 29.9 mph 0.03 in Rain Rain
8:15 AM 46.4 °F 39.0 °F 44.6 °F 93% 29.93 in 4.0 mi SSW 19.6 mph 33.4 mph 0.07 in Rain Rain
8:24 AM 46.4 °F 37.9 °F 44.6 °F 93% 29.92 in 4.0 mi SSW 25.3 mph 38.0 mph 0.11 in Rain Rain
8:46 AM 46.4 °F 38.3 °F 44.6 °F 93% 29.91 in 3.0 mi SSW 23.0 mph 41.4 mph 0.20 in Rain Rain
8:52 AM 46.4 °F 38.3 °F 44.6 °F 93% 29.90 in 2.5 mi South 23.0 mph 36.8 mph 0.23 in Rain Rain
8:53 AM 46.4 °F 37.9 °F 44.6 °F 93% 29.90 in 2.5 mi South 25.3 mph 36.8 mph 0.23 in Rain Rain
8:55 AM 46.9 °F - 43.0 °F 86% 29.90 in 2.5 mi SSW 25.3 mph 36.8 mph 0.24 in Rain Rain
9:05 AM 46.4 °F 38.5 °F 44.6 °F 93% 29.91 in 4.0 mi SSW 21.9 mph 36.8 mph 0.04 in Rain Rain
9:16 AM 46.4 °F 38.7 °F 44.6 °F 93% 29.92 in 3.0 mi SSW 20.7 mph 34.5 mph 0.06 in Rain Rain
9:24 AM 46.4 °F 38.5 °F 44.6 °F 93% 29.91 in 3.0 mi SW 21.9 mph 42.6 mph 0.09 in Rain Rain
9:39 AM 46.4 °F 38.3 °F 42.8 °F 87% 29.90 in 2.5 mi SSW 23.0 mph 34.5 mph 0.14 in Rain Rain
9:55 AM 46.0 °F 37.8 °F 44.1 °F 93% 29.90 in 2.5 mi SSW 23.0 mph 40.3 mph 0.21 in Rain Rain
10:06 AM 46.4 °F 38.1 °F 42.8 °F 87% 29.88 in 2.5 mi SSW 24.2 mph 43.7 mph 0.02 in Rain Rain
10:20 AM 46.4 °F 38.3 °F 42.8 °F 87% 29.88 in 2.5 mi SSW 23.0 mph 38.0 mph 0.07 in Rain Rain
10:55 AM 46.9 °F - 44.1 °F 90% 29.86 in 2.0 mi SSW 29.9 mph 44.9 mph 0.19 in Rain Rain
11:12 AM 46.4 °F 37.7 °F 44.6 °F 93% 29.87 in 2.0 mi SSW 26.5 mph 46.0 mph 0.05 in Rain Rain
11:18 AM 46.4 °F 38.3 °F 44.6 °F 93% 29.86 in 1.8 mi SSW 23.0 mph 46.0 mph 0.07 in Rain Rain
11:26 AM 46.4 °F 37.9 °F 44.6 °F 93% 29.85 in 2.5 mi SSW 25.3 mph 35.7 mph 0.10 in Rain Rain
11:32 AM 46.4 °F 38.3 °F 44.6 °F 93% 29.86 in 3.0 mi SSW 23.0 mph 36.8 mph 0.11 in Rain Rain
11:34 AM 46.4 °F 37.4 °F 44.6 °F 93% 29.86 in 2.5 mi SSW 28.8 mph 38.0 mph 0.11 in Rain Rain
11:50 AM 46.4 °F 38.5 °F 44.6 °F 93% 29.86 in 2.0 mi SSW 21.9 mph 41.4 mph 0.17 in Rain Rain
11:55 AM 46.9 °F - 45.0 °F 93% 29.85 in 2.0 mi SSW 21.9 mph 34.5 mph 0.18 in Rain Rain
12:07 PM 46.4 °F 38.7 °F 44.6 °F 93% 29.85 in 1.8 mi SSW 20.7 mph 38.0 mph 0.05 in Rain Rain
12:17 PM 46.4 °F 40.1 °F 44.6 °F 93% 29.84 in 2.0 mi SSW 15.0 mph 35.7 mph 0.09 in Rain Rain
12:33 PM 46.4 °F 37.4 °F 44.6 °F 93% 29.85 in 2.0 mi SSW 28.8 mph 39.1 mph 0.14 in Rain Rain
12:49 PM 48.2 °F - 46.4 °F 93% 29.85 in 1.8 mi SSW 21.9 mph 41.4 mph 0.21 in Rain Rain
12:55 PM 48.0 °F - 46.0 °F 93% 29.85 in 1.8 mi SSW 21.9 mph 35.7 mph 0.24 in Rain Rain
1:05 PM 48.2 °F - 46.4 °F 93% 29.85 in 1.2 mi SW 15.0 mph 34.5 mph 0.05 in Rain Heavy Rain
1:12 PM 46.4 °F 38.3 °F 44.6 °F 93% 29.86 in 1.5 mi West 23.0 mph 29.9 mph 0.09 in Rain Rain
1:14 PM 46.4 °F 39.2 °F 44.6 °F 93% 29.86 in 2.0 mi West 18.4 mph 29.9 mph 0.10 in Rain Light Rain
1:22 PM 46.4 °F 39.8 °F 44.6 °F 93% 29.87 in 10.0 mi West 16.1 mph 24.2 mph 0.10 in   Overcast
1:37 PM 46.4 °F 41.5 °F 44.6 °F 93% 29.88 in 9.0 mi WSW 10.4 mph - 0.10 in   Overcast
1:55 PM 48.0 °F - 45.0 °F 89% 29.87 in 8.0 mi WSW 11.5 mph - 0.10 in   Overcast
2:32 PM 48.2 °F - 44.6 °F 87% 29.87 in 8.0 mi WSW 12.7 mph - N/A   Overcast
2:40 PM 48.2 °F - 44.6 °F 87% 29.87 in 8.0 mi WSW 15.0 mph - N/A   Overcast
2:47 PM 48.2 °F - 44.6 °F 87% 29.88 in 8.0 mi WSW 15.0 mph 23.0 mph N/A   Mostly Cloudy
2:55 PM 48.9 °F - 43.0 °F 80% 29.88 in 8.0 mi WSW 17.3 mph 23.0 mph N/A   Mostly Cloudy
3:30 PM 48.2 °F - 42.8 °F 82% 29.89 in 7.0 mi West 20.7 mph 25.3 mph N/A   Overcast
3:38 PM 48.2 °F - 42.8 °F 82% 29.89 in 6.0 mi West 20.7 mph 27.6 mph 0.00 in Rain Light Rain
3:55 PM 46.0 °F 38.5 °F 39.0 °F 76% 29.91 in 5.0 mi West 19.6 mph 27.6 mph 0.00 in Rain Light Rain
4:02 PM 44.6 °F 37.8 °F 39.2 °F 81% 29.90 in 3.0 mi West 15.0 mph 25.3 mph 0.02 in Rain Light Rain
4:55 PM 45.0 °F 39.7 °F 37.9 °F 76% 29.92 in 7.0 mi West 10.4 mph - 0.02 in   Overcast
5:55 PM 43.0 °F 36.0 °F 35.1 °F 74% 29.93 in 10.0 mi West 13.8 mph - 0.02 in   Mostly Cloudy
6:55 PM 44.1 °F 37.4 °F 34.0 °F 68% 29.93 in 10.0 mi West 13.8 mph 24.2 mph N/A   Partly Cloudy
7:42 PM 39.2 °F 32.5 °F 33.8 °F 81% 29.95 in 10.0 mi WNW 10.4 mph - 0.00 in   Mostly Cloudy
7:55 PM 39.9 °F 35.1 °F 34.0 °F 79% 29.96 in 10.0 mi West 6.9 mph - 0.00 in   Mostly Cloudy
8:55 PM 39.9 °F 32.1 °F 35.1 °F 83% 29.99 in 10.0 mi WSW 13.8 mph - N/A   Mostly Cloudy
9:55 PM 42.1 °F 36.6 °F 34.0 °F 73% 30.00 in 10.0 mi West 9.2 mph - N/A   Mostly Cloudy
10:55 PM 41.0 °F 31.9 °F 35.1 °F 79% 30.02 in 10.0 mi West 19.6 mph 26.5 mph 0.01 in   Partly Cloudy
11:55 PM 42.1 °F 35.2 °F 35.1 °F 76% 30.04 in 10.0 mi West 12.7 mph - N/A   Mostly Cloudy